Eldor Abdullaev

Chief Scout - Metallurg
4 Apr 2027
Sunday
Process

Personality

Adaptability (6) Ambition (14) Controversy (7) Loyalty (19) Pressure (2) Professionalism (15) Sportsmanship (18) Temperament (19)

Profile

Coaching Style Democratic
License Continental A
Determination 5
Man Management 4
Motivating 7
Discipline 6
Job Satisfaction
50%
Fatigue
0%
Role Chief Scout
Wage 48.4K p/w
Contract 14.03.2029

Performance

Behaviour Normal
Training Effectiveness
14%
Player Development
30%
Injury Prevention
20%
Tactical Implementation
30%

Recent Events

Assessed a player now
Attended a recruitment meeting now
Attended a recruitment meeting now
Attended a recruitment meeting now
Assessed a player now
Attended a recruitment meeting 7d ago
Assessed a player 7d ago
Assessed a player 7d ago

Currently Monitoring

168
Player Club Status Ability Confidence Watched Last Observed Latest Vote
Jurgen Degabriele Hibernians Active 67 / 69 40% 3 01.04.2027 -
Marc Gual Kairat Active 107 / 110 40% 1 01.04.2027 -
Josh Woods Accrington Stanley Active 92 / 81 40% 3 31.03.2027 -
Eljon Toci Dolomiti Bellunesi Active 86 / 94 40% 3 31.03.2027 -
Amani Richards Milton Keynes Dons Active 98 / 82 40% 3 30.03.2027 -
Maksim Galkin Shakhter Active 102 / 86 40% 1 30.03.2027 -
Louis Appéré Cambridge United Active 93 / 100 40% 7 29.03.2027 -
Daniel Udoh Salford City Active 118 / 108 40% 3 29.03.2027 -
Yann Kitala Vizela Active 95 / 92 40% 2 28.03.2027 -
Daniiar Üsenov Tobol Active 107 / 96 40% 1 28.03.2027 -
Kane Drummond Oldham Athletic Active 96 / 85 40% 3 21.03.2027 -
Uroš Milovanović Tobol Active 99 / 103 40% 1 21.03.2027 -
Luis Fernando Santa Clara Active 91 / 103 40% 2 19.03.2027 -
Lewis McCann Fleetwood Town Active 109 / 103 40% 8 16.03.2027 -
Stephen Humphrys Bradford City Active 96 / 121 40% 2 16.03.2027 -
Martín Garnerone Estudiantes Active 104 / 126 40% 1 13.03.2027 -
Jaze Kabia Grimsby Town Active 110 / 86 40% 1 12.03.2027 -
Sam Nombe Milton Keynes Dons Active 118 / 100 40% 2 11.03.2027 -
Midana Cassamá Portimonense Active 121 / 95 40% 1 11.03.2027 -
Älisher Sulei Taraz Active 77 / 79 40% 3 09.03.2027 -
Vladislav Nahrudnyy Ternana Active 107 / 102 40% 2 05.03.2027 -
Simone Ianesi Pianese Active 81 / 105 40% 1 05.03.2027 -
Matty Stevens AFC Wimbledon Active 126 / 116 40% 2 04.03.2027 -
Ibourahima Baldé Giugliano Active 100 / 110 40% 2 03.03.2027 -
Santiago Córdoba Deportivo Pasto Active 106 / 116 40% 1 03.03.2027 -
Sagiv Jehezkel Maccabi Tel Aviv Active 101 / 118 40% 1 02.03.2027 -
Ljupce Doriev Sogdiana Active 128 / 106 40% 1 28.02.2027 -
Louis Flower Crawley Town Active 103 / 91 40% 2 27.02.2027 -
Matija Krivokapić Bunyodkor Active 87 / 99 40% 1 26.02.2027 -
Vlatko Stojanovski Mashal Active 83 / 104 40% 3 25.02.2027 -
Mo Dauda Portimonense Active 112 / 110 40% 3 25.02.2027 -
Marcus Browne AFC Wimbledon Active 100 / 102 40% 2 24.02.2027 -
Nikola Burić Astana Active 97 / 104 40% 1 24.02.2027 -
Mésaque Djú Portimonense Active 82 / 89 40% 4 23.02.2027 -
Marcos Cuenca Zaragoza Active 105 / 116 40% 2 23.02.2027 -
Ramazan Bağdat Kairat Active 91 / 106 40% 3 22.02.2027 -
José Bica Leixões Active 86 / 114 40% 1 22.02.2027 -
Felice D'Amico Foggia Active 89 / 94 40% 1 20.02.2027 -
Kimarni Smith Newport County Active 90 / 103 40% 1 19.02.2027 -
Paul Glatzel Swindon Town Active 89 / 90 40% 2 15.02.2027 -
Promise Omochere Bristol Rovers Active 87 / 88 40% 3 12.02.2027 -
Kamarai Swyer Northampton Town Active 108 / 79 40% 4 12.02.2027 -
Sebastián Cocimano Nueva Chicago Active 104 / 118 40% 1 09.02.2027 -
Tyrese Shade Burton Albion Active 88 / 100 40% 2 08.02.2027 -
Brandon Hanlan Doncaster Rovers Active 121 / 92 40% 2 07.02.2027 -
Dominik Begić Bukhara Active 83 / 91 40% 1 07.02.2027 -
Manu Garrido Vizela Active 87 / 109 40% 2 06.02.2027 -
Sardor Abdunabiyev Bunyodkor Active 106 / 99 40% 1 03.02.2027 -
Oralkhan Ömirtaev Okzhetpes Active 87 / 97 40% 1 03.02.2027 -
Oleksiy Shchebetun Qizilqum Active 95 / 106 40% 2 02.02.2027 -
Danilo Santacruz Madura United Active 101 / 102 40% 2 01.02.2027 -
Javier Martínez Almirante Brown Active 115 / 98 40% 3 01.02.2027 -
Mason Bennett Harrogate Town Active 73 / 91 40% 2 29.01.2027 -
Will Davies Fleetwood Town Active 94 / 80 40% 2 29.01.2027 -
Raphael Success Zhetysu Active 81 / 92 40% 2 28.01.2027 -
Asadbek Jo'raboyev Bukhara Active 100 / 99 40% 1 28.01.2027 -
Rodrigo Marquês Oliveirense Active 110 / 87 40% 2 26.01.2027 -
Abdulla Abdullaev Pakhtakor Lost 70 / 88 48% 1 11.01.2027 -
Juan Cruz Zurbriggen San Telmo Active 85 / 87 40% 3 29.12.2026 -
Charles Vernam Grimsby Town Active 124 / 103 40% 3 28.12.2026 -
Dylan Duffy Chesterfield Active 98 / 110 40% 1 28.12.2026 -
Jake Bidwell Coventry City Active 138 / 108 40% 1 27.12.2026 -
Mal Benning Shrewsbury Town Active 74 / 88 40% 1 27.12.2026 -
Frazer Blake-Tracy Mansfield Town Active 102 / 101 40% 2 26.12.2026 -
Nohan Kenneh Tranmere Rovers Active 85 / 103 40% 1 25.12.2026 -
Shohnazar Norbekov Mashal Active 96 / 86 40% 1 25.12.2026 -
Alejandro Melo Temperley Active 115 / 112 40% 2 24.12.2026 -
Brandon Caicedo Atletico Bucaramanga Rejected 120 / 119 40% 1 24.12.2026 Needs More Info
Charlie Savage Reading Active 89 / 110 40% 2 23.12.2026 -
Maximiliano Rueda Patronato Active 122 / 99 40% 1 23.12.2026 -
Raúl Lozano Quilmes Active 116 / 107 40% 2 21.12.2026 -
Charlie Taylor Southampton Active 137 / 133 40% 1 21.12.2026 -
Martin Boakye Andijon Active 119 / 106 40% 2 18.12.2026 -
Claudio Salto Almagro Active 96 / 97 40% 3 13.12.2026 Monitor
Muhriddin Zoirov Lokomotiv Active 86 / 100 40% 1 12.12.2026 -
Sergio González Bunyodkor Rejected 119 / 116 40% 2 10.12.2026 Needs More Info
Diego Campos Bali United Rejected 98 / 99 40% 2 09.12.2026 Needs More Info
Brandon López All Boys Rejected 110 / 118 40% 1 09.12.2026 Needs More Info
Abu Kamara Persis Rejected 94 / 102 40% 2 08.12.2026 Needs More Info
Shawn McCoulsky Harrogate Town Active 75 / 73 40% 1 07.12.2026 -
Álex Perdomo Defensor Sporting Active 106 / 102 40% 1 07.12.2026 Needs More Info
Ezra Walian Persik Active 92 / 101 40% 2 06.12.2026 -
Augusto Berrondo Tristán Suárez Active 112 / 122 40% 1 06.12.2026 -
Dylan Albornoz Casa Pia Active 75 / 79 40% 1 05.12.2026 -
Yehor Kondratiuk Kokand 1912 Active 104 / 97 40% 4 04.12.2026 -
Jude Soonsup-Bell Hapoel Acre Active 103 / 102 40% 3 04.12.2026 -
Amirbek Saidov Bukhara Active 92 / 107 40% 2 03.12.2026 -
Izzatullo Abdulhaqov Mashal Active 91 / 86 40% 1 02.12.2026 -
Islom Kenjaboyev Shortan Active 78 / 95 40% 2 30.11.2026 -
Sudi Abdallah Persijap Active 88 / 96 40% 1 29.11.2026 -
Júnior Brandão Madura United Active 122 / 117 40% 3 28.11.2026 -
Vincent Harper Walsall Active 96 / 79 40% 1 28.11.2026 -
Jack Vale Alcione Milano Active 76 / 94 40% 2 27.11.2026 -
Yusuf Otubanjo Nasaf Active 127 / 110 40% 2 26.11.2026 -
Liam Coyle Accrington Stanley Active 70 / 87 40% 1 26.11.2026 -
Mihailo Perović Persebaya Active 104 / 106 40% 1 24.11.2026 -
Gonzalo Asis Almagro Active 93 / 98 40% 1 23.11.2026 -
Jamshid Boltaboev Borneo Active 104 / 100 40% 2 22.11.2026 -
Clinton Mola Bristol Rovers Active 100 / 105 40% 1 22.11.2026 -
Zabihillo O'rinboyev Navbahor Active 112 / 110 40% 2 20.11.2026 -
Javohir Qahramonov Sogdiana Active 108 / 86 40% 1 20.11.2026 -
Michael Adu-Poku Watford Active 65 / 79 40% 1 11.11.2026 -
Alan Salas San Lorenzo Active 97 / 91 40% 1 11.11.2026 -
Hakeeb Adelakun Doncaster Rovers Active 118 / 97 40% 4 08.11.2026 -
Diego Opazo Santiago Wanderers Active 62 / 83 40% 1 08.11.2026 -
Aziz Turg'unboyev Pakhtakor Active 126 / 121 40% 1 08.11.2026 -
Dan Crowley Milton Keynes Dons Active 93 / 106 40% 1 07.11.2026 -
Islom Sharipov Mashal Active 73 / 93 40% 1 07.11.2026 -
Kingsley Sokari Nasaf Active 97 / 103 40% 1 06.11.2026 -
Dejan Tumbas Persis Active 87 / 95 40% 1 03.11.2026 -
Otabek Jo'raqo'ziyev Sogdiana Active 83 / 103 40% 3 02.11.2026 -
Dalberto Arema Active 110 / 113 40% 1 31.10.2026 -
Enzo Larrosa Independiente Medellin Active 100 / 99 40% 1 30.10.2026 -
Nuriddin Nuriddinov Mashal Active 72 / 93 40% 2 28.10.2026 -
Ivo Costantino Danubio Active 102 / 122 40% 2 28.10.2026 -
Marcelo Sliema Wanderers Active 84 / 95 40% 2 23.10.2026 -
Po'latxo'ja Xoldorxonov Andijon Active 83 / 82 40% 1 23.10.2026 -
Matt Smith Newport County Active 92 / 88 40% 1 23.10.2026 -
Andreas Weimann Cheltenham Town Active 136 / 111 40% 2 22.10.2026 Needs More Info
Juan Pablo Barinaga Patronato Active 128 / 103 40% 2 16.10.2026 -
Juan Pablo De la Reta Maipú Active 90 / 112 40% 1 14.10.2026 -
Doniyor Narzullayev Shortan Active 94 / 82 40% 1 14.10.2026 -
Luciano Pascual Godoy Cruz Active 110 / 109 40% 1 11.10.2026 -
Gonzalo Tapia Palestino Active 102 / 105 40% 1 09.10.2026 -
Matías Batule Mitre Active 92 / 84 40% 1 08.10.2026 -
Théo Berdayes Sion Active 112 / 117 40% 1 07.10.2026 -
Damir Céter Hamrun Spartans Active 111 / 94 40% 1 06.10.2026 -
Uroš Kojić AGMK Active 107 / 92 40% 1 05.10.2026 -
Bobomurod Bozorov Qizilqum Active 88 / 86 40% 1 05.10.2026 -
Lucas González Nacional Active 117 / 121 40% 1 03.10.2026 -
Ivan Bašić Astana Active 114 / 117 40% 1 30.09.2026 -
Iskandar Shayqulov Shortan Active 95 / 97 40% 2 28.09.2026 -
Bilolxon Toshmirzayev Bunyodkor Active 87 / 94 40% 1 28.09.2026 -
Ricardo Solbes Unión de Santa Fe Active 90 / 114 40% 1 28.09.2026 -
Andres Lioi Chaco For Ever Active 125 / 101 40% 1 28.09.2026 -
Shota Gvazava Kokand 1912 Active 94 / 100 40% 1 26.09.2026 -
Maximiliano Badur Morón Active 114 / 108 40% 1 26.09.2026 -
Diamanka Senghor Mosta Active 99 / 80 40% 1 25.09.2026 -
Alisher Salimov Kokand 1912 Active 90 / 94 40% 1 24.09.2026 -
Maximiliano Ribero Central Norte Active 91 / 99 40% 1 24.09.2026 -
Valdeci Arema Active 95 / 92 40% 1 22.09.2026 -
Robert Murić Floriana Active 82 / 93 40% 1 21.09.2026 -
Kianz Froese Semen Padang Active 110 / 106 40% 1 20.09.2026 -
Amir To'raqulov Bunyodkor Active 87 / 98 40% 1 18.09.2026 -
Jan Franc Lucumí America de Cali Active 96 / 101 40% 1 17.09.2026 -
Tobías Ganduglia Independiente Rivadavia Active 74 / 82 40% 1 15.09.2026 -
Joaquín Rivero Instituto Active 83 / 109 40% 1 14.09.2026 -
Shungu Dutiro PSBS Biak Active 84 / 92 40% 2 13.09.2026 -
Oswaldo Valencia River Plate Active 118 / 91 40% 1 11.09.2026 -
Juan Manuel Mazzolo Maipú Active 104 / 84 40% 1 11.09.2026 -
Alisher Shukurov Qizilqum Active 81 / 85 40% 1 11.09.2026 -
Alistair Smith AFC Wimbledon Active 113 / 88 40% 1 10.09.2026 -
Muhammadanas Hasanov Kokand 1912 Active 89 / 104 40% 1 10.09.2026 -
Ian Escobar Vélez Active 73 / 101 40% 1 09.09.2026 -
Riquelme Madura United Active 88 / 103 40% 1 09.09.2026 -
Eseosa Sule West Bromwich Albion Active 80 / 85 40% 1 08.09.2026 -
Siavash Haghnazari AGMK Active 100 / 111 40% 2 05.09.2026 -
Ilhomjon Vahobov Qizilqum Active 101 / 81 40% 1 05.09.2026 -
Ikromjon Aliboev Neftchi Active 98 / 118 40% 1 04.09.2026 -
Grigol Chabradze Qizilqum Active 85 / 95 40% 1 04.09.2026 -
Jamshid Iskanderov Neftchi Active 123 / 107 40% 1 02.09.2026 -
Luka Ratković Qizilqum Active 87 / 93 40% 1 02.09.2026 -
Ignacio Gonella Central Espanol Active 68 / 74 40% 1 01.09.2026 -
Facundo Pérez Juventud Active 79 / 87 40% 1 03.08.2026 -
Ian Vorogovskiy Astana Active 104 / 117 40% 1 02.08.2026 -
Roman Asrankulov Tobol Active 110 / 111 40% 1 02.08.2026 -
Everton Moraes Ordabasy Active 115 / 113 40% 1 01.08.2026 -
Pablo López Tacuarembo Active 118 / 94 40% 1 01.08.2026 -